Andalusia, AL

10:26 PM CST on February 19, 2018 (GMT -0600)
Andalusia

Weather History for K79J - February, 2014

Change the Weather History Date:

Sunday, February 9, 2014

  Actual Average (KCEW) Record (KCEW)
Temperature  
Mean Temperature 54 °F -  
Max Temperature 70 °F 63 °F 79 °F (1949)
Min Temperature 39 °F 36 °F 26 °F (1992)
Degree Days  
Heating Degree Days 10    
Growing Degree Days 4 (Base 50)    
Moisture  
Dew Point 41 °F    
Average Humidity 65    
Maximum Humidity 86    
Minimum Humidity 36    
Precipitation  
Precipitation 0.00 in - - ()
Sea Level Pressure  
Sea Level Pressure 30.12 in    
Wind  
Wind Speed 2 mph (WNW)    
Max Wind Speed 13 mph    
Max Gust Speed -    
Visibility 10 miles    
Events      
Averages and records for this station are not official NWS values.
T = Trace of Precipitation, MM = Missing Value Source: NWS Daily Summary

Daily Weather History Graph

Daily Weather History Graph

Search for Another Location

Airport or City:

Trip Planner

Search our weather history database for the weather conditions in past years. The results will help you decide how hot, cold, wet, or windy it might be!

Date:

Astronomy

Feb. 09, 2014 Rise Set
Actual Time 6:32 AM CST 5:27 PM CST
Civil Twilight 6:07 AM CST 5:52 PM CST
Nautical Twilight 5:38 AM CST 6:21 PM CST
Astronomical Twilight 5:10 AM CST 6:49 PM CST
Moon 1:13 PM CST (2/9) 2:30 AM CST (2/9)
Length of Visible Light 11h 45m
Length of Day
10h 55m
Waxing Gibbous, 77% of the Moon is Illuminated
Feb 9
Waxing Gibbous
Feb 14
Full
Feb 22
Last Quarter
Mar 1
New
Mar 8
First Quarter

Hourly Weather History & Observations

Time (CST) Temp. Windchill Dew Point Humidity Pressure Visibility Wind Dir Wind Speed Gust Speed Precip Events Conditions
12:56 AM 43.0 °F - 37.9 °F 82% 30.14 in 8.0 mi Calm Calm - N/A   Clear
1:56 AM 42.1 °F - 36.0 °F 79% 30.12 in 10.0 mi Calm Calm - N/A   Clear
2:56 AM 41.0 °F - 36.0 °F 82% 30.12 in 10.0 mi Calm Calm - N/A   Clear
3:56 AM 39.9 °F 37.8 °F 35.1 °F 83% 30.13 in 10.0 mi NNW 3.5 mph - N/A   Clear
4:56 AM 41.0 °F - 36.0 °F 82% 30.14 in 10.0 mi Calm Calm - N/A   Clear
5:56 AM 39.0 °F - 35.1 °F 86% 30.15 in 6.0 mi Calm Calm - N/A   Clear
6:56 AM 39.0 °F - 33.1 °F 79% 30.15 in 10.0 mi Calm Calm - N/A   Clear
7:56 AM 46.0 °F - 39.0 °F 76% 30.19 in 10.0 mi Calm Calm - N/A   Clear
8:56 AM 55.9 °F - 41.0 °F 57% 30.19 in 10.0 mi Calm Calm - N/A   Clear
9:56 AM 63.0 °F - 41.0 °F 45% 30.20 in 10.0 mi NW 5.8 mph - N/A   Clear
10:56 AM 64.9 °F - 43.0 °F 45% 30.18 in 10.0 mi NNW 12.7 mph - N/A   Clear
11:56 AM 66.9 °F - 44.1 °F 44% 30.14 in 10.0 mi North 5.8 mph - N/A   Clear
12:56 PM 68.0 °F - 43.0 °F 40% 30.10 in 10.0 mi North 5.8 mph - N/A   Clear
1:56 PM 69.1 °F - 43.0 °F 39% 30.08 in 10.0 mi Calm Calm - N/A   Clear
2:56 PM 70.0 °F - 44.1 °F 39% 30.07 in 10.0 mi Calm Calm - N/A   Clear
3:56 PM 70.0 °F - 42.1 °F 36% 30.07 in 10.0 mi West 4.6 mph - N/A   Clear
4:56 PM 68.0 °F - 43.0 °F 40% 30.07 in 10.0 mi Calm Calm - N/A   Clear
5:56 PM 60.1 °F - 46.0 °F 60% 30.09 in 10.0 mi Calm Calm - N/A   Clear
6:56 PM 55.0 °F - 46.0 °F 72% 30.09 in 10.0 mi Calm Calm - N/A   Clear
7:56 PM 52.0 °F - 45.0 °F 77% 30.08 in 10.0 mi Calm Calm - N/A   Clear
8:56 PM 50.0 °F - 44.1 °F 80% 30.10 in 10.0 mi SSW 3.5 mph - N/A   Clear
9:56 PM 54.0 °F - 46.0 °F 75% 30.11 in 10.0 mi WSW 4.6 mph - N/A   Clear
10:56 PM 53.1 °F - 46.0 °F 77% 30.12 in 10.0 mi West 3.5 mph - N/A   Clear
11:56 PM 54.0 °F - 46.9 °F 77% 30.08 in 10.0 mi West 5.8 mph - N/A   Clear